User: anonymous   Login
Location: Unspecified
(0.0000°N, 0.0000°E)
Time: 01:14:11
(UTC+00:00)
Language:

UHF F/O F2 - Orbit

View from above orbital plane
View from above orbital plane
View from above satellite
View from above satellite

Ground track
Ground track

The orbit data is extracted from the following two-line orbital elements,

1 22787U 93056A   23088.39841104  .00000123  00000-0  00000+0 0  9995
2 22787  11.5371   9.6464 0004511  10.2550 338.7366  1.00273500106864
Epoch (UTC): 29 March 2023 09:33:42
Eccentricity: 0.0004511
inclination: 11.5371°
perigee height: 35767 km
apogee height: 35805 km
right ascension of ascending node: 9.6464°
argument of perigee: 10.2550°
revolutions per day: 1.00273500
mean anomaly at epoch: 338.7366°
orbit number at epoch: 10686

The dashed part of the orbit path shows where the satellite is in the earth's shadow,  

DLR